Find Starlink 3640

NORAD ID: 51988 Int'l Des: 2022-025 Owner: SPXS Country: US Constellation: starlink operational
LEOCIRCULAR

Current View

Loading 3D Globe...

About Starlink 3640

Description loading...

Upcoming Passes

Passes for default location (London). Set your location on the main map for personalized predictions.

Altitude History

Loading altitude history...

Two-Line Element Set

1 51988U 22025AJ 26149.11173082 -.00000280 00000-0 51437-6 0 9994
2 51988 53.2014 38.0874 0001322 76.3571 283.7568 15.08837205233203
Epoch: May 29, 2026 • Age: 25 hours

Current Status

Altitude 555.3 km
Velocity 7.58 km/s
Sub-Earth Point -43.71°S, 42.68°W
Launch Date Mar 9, 2022
Age 4.2 years
Type internet

Technical Details

Classification Payload
Mass 297.00 kg
Dry Mass 275.00 kg
Total Mass 297.00 kg
Length 0.20 m
Diameter 2.80 m
Span 9.00 m
Shape Box + pan
Manufacturer SPXS
Bus Type Starlink
Phase Status In Orbit
Owner/State SPXS/US

Most Searched